Location: Lafor�t-Belleville
(45.9553°N, 1.8774°E)
Time: 05:51:37
(UTC+00:00)

Daily predictions for brighter satellites

Satellite Brightness Start Highest point End
(mag) Time Altitude Azimuth Time Altitude Azimuth Time Altitude Azimuth
Cosmos 2333 Rocket 3.8 00:02:51 10° N 00:07:04 29° NE 00:07:04 29° NE
Cosmos 2082 Rocket 4.4 00:27:35 16° NW 00:28:25 17° NW 00:32:00 10° N
SL-16 R/B 3.7 00:31:32 35° ENE 00:31:43 35° ENE 00:37:16 10° N
Cosmos 2219 Rocket 3.4 00:45:24 10° NNW 00:49:01 37° N 00:49:01 37° N
ADEOS II 4.3 01:04:56 10° NE 01:08:11 17° E 01:08:11 17° E
COSMOS 2428 3.8 01:06:28 10° NNW 01:10:03 39° NNW 01:10:03 39° NNW
SJ 16-02 3.6 01:14:58 23° NNE 01:14:58 23° NNE 01:16:41 10° NNE
Cosmos 1464 Rocket 4.4 01:08:05 10° N 01:13:08 58° NNE 01:13:08 58° NNE
Resurs 1-4 Rocket 3.2 01:15:15 10° NNE 01:18:58 41° NE 01:18:58 41° NE
NOSS 0 Rocket 4.3 01:18:53 10° NNW 01:24:55 59° NE 01:24:55 59° NE
SL-16 R/B 4.5 01:30:18 10° N 01:34:37 22° NE 01:38:55 10° E
H-2A R/B 4.5 01:34:44 16° ENE 01:35:39 17° ENE 01:38:23 10° NNE
Lacrosse 5 rocket 3.8 01:41:23 19° NNE 01:41:23 19° NNE 01:42:46 10° NE
Timation 2 Rocket 4.1 01:39:47 77° E 01:39:47 77° E 01:46:31 10° NNE
NPP 4.1 01:39:37 10° NNE 01:44:03 59° NE 01:44:03 59° NE
CZ-2D R/B 2.5 01:41:14 10° NNE 01:45:47 62° NNE 01:45:47 62° NNE
Cosmos 2333 Rocket 3.9 01:46:53 10° NW 01:49:02 23° NW 01:49:02 23° NW
Cosmos 1937 Rocket 4.0 01:56:46 58° NNE 01:56:46 58° NNE 02:00:55 10° NNE
CZ-4B R/B 4.2 01:52:38 10° NNE 01:55:59 45° N 01:55:59 45° N
USA 267 4.2 01:52:37 10° ENE 01:58:24 33° SE 01:58:52 32° SE
SL-08 R/B 4.3 01:58:00 44° E 01:58:30 45° ENE 02:03:14 10° N
Cosmos 2237 Rocket 2.4 01:52:55 10° NNW 01:58:36 68° ENE 01:58:51 67° E
Tsikada Rocket 4.0 02:00:24 71° SE 02:00:55 75° E 02:07:20 10° NNE
CBERS-1 4.3 01:58:11 10° NNE 02:02:45 63° ENE 02:02:45 63° ENE
Cosmos 2034 Rocket 4.0 01:57:58 10° NNW 02:03:51 67° WNW 02:03:51 67° WNW
Cosmos 2285 Rocket 4.4 02:05:00 49° WNW 02:05:00 49° WNW 02:11:09 10° NNE
Meteor 1-27 Rocket 3.8 02:07:19 69° NNW 02:07:19 69° NNW 02:12:36 10° N
Cosmos 1898 Rocket 4.2 02:11:46 44° NNW 02:11:46 44° NNW 02:15:56 10° NNE
IRS-P3 4.3 02:08:47 10° NNE 02:14:07 63° ESE 02:14:22 62° ESE
SL-16 R/B 3.2 02:16:37 39° WNW 02:16:37 39° WNW 02:21:08 10° NNW
Cosmos 2297 Rocket 2.4 02:18:25 60° SE 02:18:51 61° ESE 02:24:26 10° NNE
Cosmos 1743 4.2 02:15:33 10° N 02:18:11 36° NNE 02:18:11 36° NNE
USA 238 DEB 3.8 02:18:58 54° SSE 02:20:05 62° ESE 02:26:52 10° NE
USA 238 3.8 02:19:03 54° SSE 02:20:12 62° ESE 02:26:59 10° NE
BREEZE-M DEB (TANK) 3.6 02:22:14 60° NE 02:22:14 60° NE 02:26:44 10° ENE
Cosmos 2219 3.0 02:27:51 79° SW 02:28:14 88° WNW 02:34:02 10° NNE
Cosmos 1048 Rocket 4.5 02:23:28 10° NNW 02:28:46 60° ENE 02:32:52 17° SE
AQUA 4.5 02:24:44 10° N 02:28:31 45° NW 02:28:31 45° NW
STARLINK-1060 4.5 02:32:12 47° E 02:32:12 47° E 02:35:18 10° ENE
USA 234 4.1 02:27:39 10° E 02:33:52 48° NNE 02:40:06 10° NW
Cosmos 2219 Rocket 4.3 02:30:02 10° NW 02:30:42 13° NW 02:30:42 13° NW
Cosmos 2279 Rocket 4.4 02:29:19 10° N 02:35:30 60° ENE 02:40:52 14° SSE
Meteor 1-28 Rocket 4.0 02:36:21 48° ENE 02:36:21 48° ENE 02:39:47 10° N
STARLINK-1030 4.2 02:37:00 54° ENE 02:37:00 54° ENE 02:40:18 10° ENE
Cosmos 1125 Rocket 4.2 02:37:45 39° SSE 02:39:12 49° ESE 02:44:19 10° NNE
STARLINK-1020 4.0 02:41:48 61° ENE 02:41:48 61° ENE 02:45:18 10° ENE
IRS-1D 3.6 02:38:22 10° N 02:43:17 56° WNW 02:43:17 56° WNW
NOSS 3-2 (A) 3.3 02:42:50 58° SSW 02:44:03 81° SE 02:50:36 10° NE
Cosmos 2227 Rocket 2.1 02:44:21 61° SSW 02:45:24 86° ESE 02:51:06 10° NNE
STARLINK-1052 3.8 02:46:34 70° ENE 02:46:34 70° ENE 02:50:16 10° ENE
CENTAUR R/B 3.1 02:46:11 34° SSE 02:48:24 48° ESE 02:54:56 10° NE
ADEOS II 2.0 02:43:16 10° N 02:48:31 70° WNW 02:49:08 63° WSW
CZ-2D R/B 3.8 02:46:57 10° NNE 02:51:09 60° E 02:51:41 54° SE
SJ 16-02 3.5 02:51:57 15° NW 02:51:57 15° NW 02:54:05 10° NNW
Cosmos 2150 Rocket 4.0 02:50:34 62° SW 02:51:30 81° WNW 02:57:00 10° NNE
Cosmos 2298 Rocket 3.9 02:51:31 63° WSW 02:52:17 74° WNW 02:57:38 10° NNE
Cosmos 1782 Rocket 3.4 02:47:56 10° N 02:52:18 90° N 02:52:27 83° S
NOSS 3-3 (A) 4.4 02:45:04 10° NW 02:52:37 86° SW 03:00:58 10° SE
NOSS 3-3 (C) 4.4 02:45:09 10° NW 02:52:42 87° SW 03:01:05 10° SE
CZ-4C R/B 4.3 02:54:40 30° N 02:54:40 30° N 02:56:26 10° N
Okean 1-7 2.9 02:55:06 78° W 02:55:10 78° W 02:59:36 10° N
STARLINK-1027 3.6 02:55:30 82° NW 02:55:32 82° NNW 02:59:48 10° ENE
STARLINK-1033 3.5 02:56:08 82° N 02:56:08 82° N 03:00:14 10° ENE
Cosmos 2242 Rocket 4.2 02:57:06 43° WNW 02:57:06 43° WNW 03:01:03 10° N
SAR-Lupe-4 4.3 02:57:22 34° SE 02:58:33 51° ENE 03:02:02 10° N
Resurs 1-4 Rocket 3.5 02:55:49 10° N 02:59:55 23° WNW 03:00:03 23° WNW
Cosmos 1703 Rocket 3.6 03:00:17 61° WNW 03:00:17 61° WNW 03:04:44 10° N
Cosmos 1980 4.5 02:56:02 10° NW 02:59:50 33° WNW 02:59:50 33° WNW
IDEFIX/ARIANE 42P 3.3 02:57:05 10° NNE 03:02:09 50° E 03:05:38 19° SSE
Cosmos 468 4.4 02:57:03 10° NNW 03:02:23 68° WSW 03:04:36 35° S
STARLINK-1031 3.6 03:02:55 66° WNW 03:03:16 71° NNW 03:07:31 10° ENE
BREEZE-M DEB (TANK) 3.0 03:05:30 37° SE 03:05:30 37° SE 03:07:35 10° E
STARLINK-1024 3.5 03:05:41 68° WNW 03:06:01 73° NNW 03:10:11 10° ENE
CZ-4B R/B 3.2 03:06:31 10° SE 03:09:42 34° ENE 03:12:54 10° N
ARIANE 5 R/B 2.6 03:04:41 10° N 03:09:52 65° WNW 03:11:22 45° SW
BREEZE-M DEB (TANK) 3.0 03:04:20 10° WNW 03:10:22 54° SW 03:14:08 10° SE
STARLINK-1035 3.6 03:10:27 60° WNW 03:11:00 68° NNW 03:15:08 10° ENE
H-2A R/B 2.3 03:11:49 47° WNW 03:11:49 47° WNW 03:15:21 10° NNW
Spot 4 Rocket 3.9 03:06:23 10° NNE 03:11:35 83° WNW 03:13:36 38° SSW
STARLINK-43 3.8 03:13:51 30° NW 03:15:27 59° NNE 03:19:06 10° ESE
NOSS 3-2 (C) 3.4 03:13:21 37° SSW 03:15:50 84° SE 03:22:25 10° NE
SAR-Lupe-1 4.2 03:14:18 31° SSE 03:15:53 75° ENE 03:19:29 10° N
STARLINK-1032 3.8 03:15:15 52° WNW 03:16:00 64° NNW 03:20:07 10° NE
Meteor 1-4 Rocket 4.4 03:13:54 12° SSE 03:16:51 30° E 03:20:11 10° NNE
STARLINK-1045 4.4 03:16:51 35° S 03:17:43 40° SE 03:21:38 10° ENE
Cosmos 389 Rocket 2.6 03:17:04 51° SSE 03:17:48 70° E 03:21:20 10° NNE
Lacrosse 5 rocket 3.6 03:17:01 11° NW 03:19:17 17° N 03:21:58 10° NE
SL-16 R/B 2.1 03:13:42 10° NNW 03:19:23 77° WSW 03:25:02 10° SSE
STARLINK-1011 3.8 03:20:02 46° W 03:21:00 60° NNW 03:25:06 10° NE
STARLINK-1050 4.3 03:21:38 36° S 03:22:41 45° SE 03:26:39 10° ENE
Cosmos 2082 3.6 03:20:11 34° SSW 03:22:48 82° WNW 03:28:34 10° NNE
STARLINK-1036 3.9 03:24:50 40° W 03:26:01 57° NNW 03:30:06 10° NE
deb Chang Zheng 4 3.8 03:21:45 10° NNE 03:26:04 67° ESE 03:28:51 21° S
CZ-2D R/B 3.9 03:22:49 10° NNW 03:26:04 16° WNW 03:27:07 16° WNW
STARLINK-1055 4.2 03:26:25 36° S 03:27:39 48° SE 03:31:39 10° ENE
STARLINK-1044 4.0 03:29:37 36° W 03:31:00 54° NNW 03:35:05 10° NE
Okean 3 3.3 03:30:21 30° S 03:32:24 85° WNW 03:36:35 10° N
STARLINK-1022 4.0 03:31:13 35° SSW 03:32:37 53° SE 03:36:40 10° ENE
Cosmos 1515 4.0 03:34:47 42° WSW 03:35:20 45° WNW 03:39:01 10° N
STARLINK-1047 4.1 03:34:23 32° W 03:35:59 51° NNW 03:40:02 10° NE
STARLINK-1037 4.1 03:35:01 31° W 03:36:38 51° NNW 03:40:41 10° NE
STARLINK-1042 3.9 03:35:59 33° SSW 03:37:35 57° SE 03:41:39 10° ENE
Meteor 1-12 Rocket 4.3 03:31:52 10° N 03:37:53 90° SE 03:43:44 10° S
Cosmos 1263 4.0 03:38:37 53° SW 03:39:10 70° W 03:42:08 10° N
Cosmos 1544 3.5 03:37:18 10° NNW 03:40:45 39° W 03:41:05 38° WSW
USA 267 3.3 03:35:16 10° NE 03:41:49 82° NW 03:46:14 23° WSW
Cosmos 2237 Rocket 3.7 03:38:07 10° NW 03:40:36 18° W 03:40:36 18° W
STARLINK-1056 3.8 03:40:46 31° SSW 03:42:32 62° SE 03:46:39 10° ENE
SeaSat 1 3.7 03:38:23 10° SE 03:43:03 44° NE 03:47:43 10° NNW
Meteor 1-19 Rocket 4.5 03:42:03 25° SW 03:44:59 48° WNW 03:50:19 10° N
Cosmos 1300 Rocket 3.4 03:40:49 10° NNW 03:45:08 74° W 03:49:26 10° S
Cosmos 494 Rocket 4.1 03:40:11 10° NNW 03:45:18 53° WSW 03:50:24 10° S
ATLAS 3B R/B 2.9 03:40:36 16° SSW 03:45:58 68° ESE 03:52:35 10° NE
STARLINK-1059 4.3 03:43:57 25° W 03:45:58 46° NNW 03:50:00 10° NE
ATLAS 5 CENTAUR R/B 2.6 03:41:40 10° NW 03:47:23 77° NE 03:54:01 10° SE
STARLINK-1054 3.7 03:45:32 29° SW 03:47:29 67° SE 03:51:37 10° ENE
Cosmos 2221 Rocket 3.6 03:45:25 24° SSW 03:47:55 58° WNW 03:52:18 10° N
Cosmos 1818 3.5 03:42:52 10° NW 03:48:18 70° WSW 03:53:40 10° SSE
ASTRO F (AKARI) 4.4 03:46:36 10° N 03:50:03 66° WNW 03:51:40 28° SSW
STARLINK-1057 4.4 03:48:44 23° W 03:50:59 44° NNW 03:54:59 10° NE
Landsat 5 4.3 03:52:25 26° W 03:52:26 26° W 03:55:43 10° NW
STARLINK-1062 3.7 03:50:19 27° SW 03:52:28 73° SE 03:56:36 10° ENE
Cosmos 2263 Rocket 3.3 03:48:58 10° S 03:54:16 43° ESE 03:59:37 10° NE
Okean 2 Rocket 3.3 03:50:48 10° NNW 03:55:09 48° W 03:59:29 10° SSW
Cosmos 1689 Rocket 2.6 03:52:40 10° SSE 03:55:38 62° ENE 03:58:37 10° N
STARLINK-1034 4.4 03:53:31 20° W 03:55:59 43° NNW 03:59:58 10° NE
Cosmos 1975 4.0 03:52:54 10° NW 03:56:06 23° W 03:56:22 23° W
Sich 1 Rocket 4.5 03:52:42 10° NNW 03:56:27 28° W 03:57:57 23° WSW
Cosmos 2151 Rocket 3.5 03:52:17 10° NNW 03:56:41 67° W 04:01:01 10° S
STARLINK-1053 3.6 03:55:07 25° SW 03:57:26 78° SSE 04:01:36 10° ENE
Cosmos 1356 3.4 03:54:19 10° NNW 03:57:41 53° W 04:01:02 10° S
BREEZE-M DEB (TANK) 2.8 03:53:53 11° WNW 03:57:46 55° N 04:00:03 10° E
PSLV R/B 3.6 03:53:27 10° NNE 03:57:51 90° WNW 04:02:14 10° SSW
STARLINK-1061 3.6 03:59:52 23° SW 04:02:24 84° SE 04:06:33 10° ENE
Cosmos 1867 4.1 03:57:09 10° SSW 04:02:29 59° ESE 04:07:51 10° NE
Cosmos 2297 Rocket 3.5 04:00:14 17° W 04:03:19 26° NW 04:08:02 10° N
Cosmos 1378 Rocket 3.9 03:59:13 10° S 04:03:30 66° E 04:07:52 10° NNE
CZ-2C R/B 3.8 04:02:12 10° N 04:05:46 30° WNW 04:07:46 20° WSW
Cosmos 1269 Rocket 4.2 04:01:33 10° NNW 04:06:40 50° WSW 04:11:45 10° S
STARLINK-1067 3.6 04:04:40 21° WSW 04:07:24 89° SE 04:11:34 10° ENE
Cosmos 1092 Rocket 4.1 04:01:06 10° S 04:07:26 86° E 04:13:47 10° N
ATLAS CENTAUR R/B 1.3 04:11:36 25° WNW 04:12:16 34° NNW 04:14:37 10° NE
STARLINK-1058 3.6 04:09:26 19° WSW 04:12:22 85° NNW 04:16:31 10° ENE
Meteor 2-4 Rocket 4.2 04:07:38 12° SW 04:12:52 46° WNW 04:18:31 10° N
Meteor 1-31 Rocket 4.3 04:09:22 10° NNE 04:13:04 38° E 04:16:44 10° SSE
USA 234 3.2 04:10:09 10° SE 04:16:41 73° SW 04:23:15 10° NW
STARLINK-1043 3.6 04:14:14 17° WSW 04:17:22 80° NNW 04:21:31 10° ENE
Geosat 4.0 04:12:50 10° NNE 04:17:55 89° W 04:22:56 10° SSW
STARLINK-1065 3.6 04:14:49 17° WSW 04:17:58 79° NNW 04:22:07 10° ENE
STARLINK-48 4.4 04:14:09 10° NW 04:17:58 49° NNE 04:21:45 10° E
Cosmos 2026 Rocket 4.1 04:12:21 10° S 04:18:25 77° E 04:24:29 10° N
Cosmos 2251 Rocket 4.0 04:15:08 10° NNW 04:20:29 66° ENE 04:25:46 10° SSE
Nadezhda 4 Rocket 4.3 04:15:12 10° SSW 04:21:19 50° WNW 04:27:28 10° N
STARLINK-41 4.2 04:22:03 10° NW 04:25:04 39° NNE 04:28:06 10° E
ADEOS II 4.1 04:25:30 10° NW 04:27:16 12° NW 04:29:01 10° WNW
STARLINK-1063 3.7 04:23:48 14° WSW 04:27:19 70° NNW 04:31:29 10° ENE
ALOS 4.0 04:24:42 10° NNE 04:29:01 35° E 04:33:18 10° SSE
Cosmos 2227 Rocket 3.8 04:26:11 10° W 04:30:14 20° NW 04:34:18 10° N
MSX 4.2 04:24:47 10° N 04:30:17 47° WNW 04:35:46 10° SW
STARLINK-42 3.9 04:28:25 10° NW 04:31:34 49° NNE 04:34:42 10° ESE
H-2A R/B 3.7 04:27:52 10° NNE 04:31:45 42° E 04:35:28 10° S
Cosmos 2227 4.2 04:26:27 10° SSW 04:32:05 82° WNW 04:37:45 10° NNE
STARLINK-1064 3.8 04:28:35 12° WSW 04:32:18 66° NNW 04:36:27 10° NE
STARLINK-80 3.4 04:30:45 10° WNW 04:34:34 90° NW 04:38:23 10° ESE
STARLINK-1041 3.8 04:33:21 11° WSW 04:37:17 62° NNW 04:41:25 10° NE
Cosmos 1943 3.2 04:32:15 10° NNW 04:37:59 80° WSW 04:43:41 10° SSE
CENTAUR R/B 3.3 04:33:22 10° WSW 04:39:10 43° NW 04:46:04 10° NNE
Okean 1 Rocket 3.2 04:37:05 10° NNW 04:41:19 50° W 04:45:34 10° SSW
IDEFIX/ARIANE 42P 3.7 04:37:18 10° N 04:41:26 25° WNW 04:45:36 10° WSW
CZ-4B R/B 3.1 04:39:52 10° SW 04:42:07 16° W 04:44:25 10° NW
STARLINK-1038 3.9 04:38:10 10° WSW 04:42:16 59° NNW 04:46:23 10° NE
Cosmos 1766 3.6 04:38:33 10° N 04:42:28 72° E 04:46:18 10° SSE
Okean 2 3.9 04:42:32 10° S 04:46:37 65° E 04:50:42 10° NNE
Cosmos 1975 Rocket 3.5 04:42:43 10° S 04:47:02 68° E 04:51:25 10° NNE
STARLINK-1046 4.0 04:43:11 10° WSW 04:47:16 55° NNW 04:51:21 10° NE
FENGYUN 3A 4.5 04:43:35 10° NNE 04:48:55 56° E 04:54:11 10° S
CZ-2C R/B 2.6 04:45:23 10° N 04:49:45 46° WNW 04:54:07 10° SW
CZ-4B R/B 3.7 04:46:30 10° N 04:50:25 80° WNW 04:54:10 10° SSW
